Precipitable_Water
0.60 0.49 0.52 0.49 0.54 0.56 0.58 0.76 0.97 0.89 0.87 0.96 0.96 0.98 1.02 1.04 1.11 1.24 1.25 1.37 1.49 1.35 1.26 1.28 1.31 1.34 1.30 1.30 1.29 1.24 1.14 1.04 1.00 0.98 0.96 0.97 1.00 0.99 1.02 1.07 1.10 1.12 1.15 1.25 1.31 1.31 1.32 1.38 1.42 1.47 1.47 1.48 1.47 1.51 1.53 1.53 1.58 1.66 1.71 1.73 1.71 1.80 1.82 1.72 1.64 1.61 1.59 1.54 1.54 1.52 1.46 1.47 1.52 1.58 1.61 1.65 1.69 1.68 1.72 1.69 1.74 1.72 1.75 1.74 1.72 1.70
0.58 0.49 0.51 0.57 0.63 0.58 0.55 0.74 0.87 0.83 0.80 0.86 0.91 0.93 0.94 1.06 1.06 1.20 1.19 1.38 1.48 1.27 1.18 1.30 1.27 1.27 1.31 1.34 1.32 1.26 1.07 0.94 0.95 0.95 0.96 0.96 0.98 0.99 1.01 1.04 1.11 1.16 1.26 1.27 1.26 1.29 1.30 1.36 1.42 1.46 1.46 1.46 1.39 1.44 1.49 1.48 1.54 1.62 1.70 1.70 1.75 1.78 1.78 1.75 1.70 1.63 1.62 1.59 1.52 1.50 1.51 1.52 1.52 1.53 1.55 1.58 1.64 1.69 1.71 1.69 1.69 1.74 1.76 1.74 1.71 1.68
0.42 0.43 0.54 0.66 0.58 0.53 0.56 0.63 0.74 0.69 0.75 0.84 0.88 0.91 0.92 1.01 1.18 1.26 1.24 1.36 1.45 1.28 1.12 1.28 1.16 1.27 1.33 1.34 1.37 1.26 1.08 1.01 1.01 0.98 0.97 0.97 0.96 0.98 1.00 1.04 1.12 1.13 1.19 1.22 1.24 1.26 1.27 1.33 1.39 1.43 1.44 1.44 1.45 1.43 1.45 1.50 1.54 1.57 1.65 1.69 1.74 1.78 1.78 1.78 1.77 1.69 1.63 1.66 1.67 1.66 1.57 1.60 1.53 1.63 1.67 1.66 1.68 1.71 1.66 1.66 1.67 1.72 1.72 1.72 1.70 1.68
0.35 0.45 0.61 0.67 0.57 0.54 0.52 0.57 0.67 0.64 0.75 0.83 0.85 0.85 0.81 1.06 0.97 0.88 1.15 1.29 1.40 1.27 1.15 1.25 1.16 1.24 1.37 1.43 1.35 1.38 1.19 1.08 1.04 1.03 1.02 1.04 0.98 0.97 0.98 1.03 1.06 1.08 1.15 1.14 1.18 1.20 1.24 1.28 1.32 1.36 1.38 1.41 1.44 1.44 1.45 1.48 1.49 1.52 1.60 1.66 1.71 1.76 1.81 1.80 1.79 1.76 1.76 1.75 1.73 1.74 1.65 1.66 1.60 1.55 1.64 1.64 1.63 1.64 1.64 1.59 1.64 1.69 1.70 1.71 1.70 1.70
0.39 0.52 0.72 0.63 0.56 0.51 0.48 0.52 0.59 0.60 0.59 0.75 0.79 0.78 0.91 0.92 1.03 1.04 1.07 1.22 1.31 1.32 1.36 1.23 1.13 1.15 1.27 1.21 1.28 1.40 1.37 1.22 1.09 1.04 1.04 1.04 1.06 1.04 1.03 1.02 1.09 1.08 1.13 1.11 1.14 1.19 1.23 1.20 1.23 1.28 1.34 1.38 1.37 1.39 1.42 1.44 1.46 1.48 1.54 1.62 1.68 1.73 1.78 1.82 1.81 1.80 1.82 1.73 1.67 1.66 1.63 1.63 1.59 1.55 1.52 1.51 1.47 1.54 1.58 1.57 1.56 1.63 1.69 1.70 1.71 1.68
0.47 0.48 0.67 0.56 0.51 0.48 0.45 0.45 0.52 0.56 0.54 0.61 0.68 0.72 0.82 0.96 0.98 1.06 1.15 1.10 1.06 1.02 1.23 1.15 0.88 0.93 1.19 1.23 1.25 1.34 1.31 1.18 1.18 1.03 0.97 0.98 1.01 1.03 0.97 0.96 1.05 1.10 1.15 1.12 1.12 1.17 1.21 1.19 1.22 1.26 1.30 1.31 1.33 1.36 1.43 1.47 1.49 1.50 1.52 1.60 1.65 1.71 1.75 1.80 1.83 1.84 1.78 1.68 1.62 1.54 1.46 1.37 1.38 1.36 1.36 1.35 1.38 1.45 1.45 1.51 1.58 1.64 1.69 1.70 1.71 1.68
0.50 0.46 0.51 0.51 0.47 0.44 0.44 0.44 0.49 0.52 0.47 0.52 0.59 0.76 0.83 0.97 1.04 1.08 1.09 1.04 0.88 0.80 1.06 1.26 0.87 0.82 1.14 1.11 1.19 1.31 1.30 1.20 1.19 1.09 0.99 0.97 0.99 1.01 0.98 0.97 1.00 1.04 1.09 1.14 1.16 1.18 1.20 1.18 1.19 1.20 1.25 1.31 1.31 1.35 1.45 1.50 1.50 1.51 1.55 1.58 1.59 1.66 1.70 1.79 1.84 1.86 1.80 1.69 1.63 1.55 1.51 1.47 1.42 1.38 1.41 1.51 1.56 1.56 1.57 1.66 1.55 1.60 1.65 1.68 1.68 1.66
0.47 0.40 0.39 0.45 0.44 0.41 0.41 0.41 0.46 0.52 0.47 0.47 0.53 0.72 0.87 1.01 1.02 1.02 1.03 0.98 0.92 1.08 1.17 1.17 1.08 0.90 0.88 1.06 1.24 1.31 1.30 1.26 1.16 1.08 1.01 0.97 0.98 0.98 0.98 0.98 0.99 1.03 1.07 1.10 1.14 1.16 1.18 1.19 1.16 1.14 1.22 1.30 1.33 1.37 1.43 1.46 1.49 1.48 1.52 1.55 1.56 1.62 1.67 1.72 1.82 1.82 1.83 1.72 1.65 1.57 1.53 1.50 1.47 1.46 1.43 1.49 1.55 1.61 1.62 1.61 1.58 1.58 1.59 1.63 1.69 1.67
0.39 0.34 0.32 0.35 0.39 0.39 0.40 0.46 0.50 0.54 0.50 0.50 0.59 0.71 0.80 0.97 1.05 1.10 1.04 1.00 1.03 0.95 0.85 1.03 1.15 0.91 0.86 1.07 1.27 1.32 1.20 1.20 1.13 1.06 1.00 0.98 0.96 0.97 0.97 0.98 0.98 1.00 1.06 1.10 1.12 1.14 1.14 1.17 1.17 1.19 1.21 1.28 1.35 1.38 1.37 1.40 1.46 1.48 1.51 1.54 1.57 1.59 1.61 1.66 1.75 1.76 1.79 1.78 1.72 1.63 1.55 1.47 1.52 1.54 1.50 1.53 1.58 1.57 1.59 1.59 1.62 1.61 1.61 1.59 1.64 1.68
0.42 0.39 0.35 0.37 0.37 0.37 0.44 0.48 0.49 0.52 0.48 0.56 0.77 0.80 0.90 0.95 0.88 1.01 1.00 1.04 1.02 0.87 0.79 0.93 1.06 0.85 0.85 1.09 1.13 1.28 1.21 1.17 1.15 1.11 1.05 1.00 0.95 0.94 0.94 0.97 0.99 1.00 1.05 1.11 1.13 1.15 1.16 1.19 1.19 1.23 1.26 1.27 1.33 1.38 1.40 1.39 1.43 1.47 1.48 1.47 1.50 1.55 1.58 1.58 1.65 1.70 1.72 1.75 1.73 1.66 1.60 1.53 1.51 1.54 1.54 1.54 1.52 1.57 1.60 1.59 1.62 1.66 1.66 1.61 1.59 1.65
0.43 0.44 0.42 0.37 0.36 0.44 0.48 0.46 0.49 0.52 0.50 0.77 0.75 0.79 0.78 0.83 0.93 0.97 1.03 1.01 0.93 0.71 0.80 0.93 1.01 0.91 0.76 0.95 1.07 1.08 1.10 1.25 1.25 1.21 1.15 1.08 1.02 0.95 0.94 0.95 0.96 0.95 1.00 1.07 1.11 1.13 1.18 1.22 1.21 1.24 1.23 1.27 1.31 1.38 1.41 1.39 1.39 1.45 1.44 1.43 1.43 1.50 1.58 1.59 1.56 1.62 1.64 1.69 1.69 1.68 1.63 1.57 1.56 1.55 1.53 1.50 1.50 1.58 1.57 1.57 1.60 1.62 1.64 1.68 1.62 1.66
0.37 0.37 0.35 0.38 0.41 0.39 0.37 0.36 0.48 0.51 0.59 0.68 0.70 0.69 0.68 0.68 0.78 0.74 0.80 0.90 0.70 0.64 0.81 0.95 0.93 0.96 0.72 0.92 1.05 1.22 1.30 1.31 1.31 1.23 1.17 1.10 1.02 0.96 0.93 0.94 0.96 0.96 0.98 1.01 1.05 1.09 1.14 1.20 1.22 1.24 1.23 1.26 1.29 1.33 1.38 1.38 1.39 1.41 1.42 1.41 1.38 1.43 1.51 1.57 1.56 1.56 1.61 1.64 1.64 1.69 1.67 1.62 1.61 1.57 1.54 1.53 1.52 1.57 1.55 1.59 1.57 1.65 1.65 1.67 1.69 1.68
0.30 0.29 0.32 0.32 0.37 0.37 0.33 0.35 0.40 0.48 0.59 0.60 0.66 0.68 0.51 0.50 0.54 0.47 0.61 0.57 0.59 0.66 0.81 0.91 0.93 0.85 0.83 0.98 1.12 1.19 1.26 1.29 1.34 1.34 1.28 1.17 1.06 1.01 0.95 0.94 0.99 0.98 0.98 0.99 1.01 1.07 1.12 1.15 1.18 1.21 1.24 1.26 1.28 1.29 1.30 1.35 1.38 1.37 1.39 1.39 1.35 1.35 1.43 1.52 1.55 1.52 1.56 1.59 1.60 1.62 1.68 1.67 1.67 1.60 1.58 1.58 1.56 1.60 1.60 1.62 1.62 1.59 1.56 1.63 1.64 1.66
0.24 0.30 0.29 0.28 0.28 0.32 0.32 0.27 0.32 0.40 0.51 0.52 0.53 0.59 0.46 0.42 0.41 0.39 0.48 0.56 0.62 0.75 0.90 0.87 1.01 0.80 0.98 1.03 1.19 1.20 1.29 1.33 1.34 1.39 1.45 1.31 1.13 1.03 0.99 0.99 0.99 0.99 1.00 0.99 1.01 1.06 1.10 1.15 1.19 1.23 1.26 1.26 1.27 1.26 1.27 1.32 1.34 1.37 1.35 1.37 1.33 1.35 1.40 1.45 1.49 1.50 1.49 1.53 1.60 1.62 1.69 1.72 1.69 1.65 1.61 1.57 1.56 1.61 1.65 1.67 1.65 1.62 1.59 1.59 1.61 1.65
0.19 0.18 0.23 0.25 0.21 0.29 0.27 0.27 0.33 0.41 0.48 0.50 0.57 0.59 0.51 0.46 0.42 0.36 0.45 0.44 0.48 0.61 0.78 0.93 0.75 0.73 0.74 0.91 1.20 1.27 1.37 1.38 1.41 1.41 1.48 1.46 1.34 1.18 1.12 1.06 1.03 1.01 1.04 1.05 1.03 1.04 1.08 1.13 1.19 1.21 1.25 1.26 1.26 1.25 1.26 1.29 1.32 1.34 1.33 1.34 1.31 1.35 1.38 1.40 1.42 1.46 1.45 1.49 1.56 1.61 1.69 1.75 1.75 1.66 1.63 1.62 1.63 1.62 1.60 1.67 1.68 1.67 1.70 1.61 1.63 1.65
0.21 0.22 0.26 0.25 0.28 0.28 0.23 0.26 0.33 0.43 0.50 0.52 0.56 0.61 0.53 0.47 0.55 0.45 0.51 0.51 0.57 0.64 0.66 0.70 0.68 0.86 0.87 1.19 1.26 1.31 1.35 1.36 1.44 1.47 1.45 1.47 1.47 1.34 1.20 1.10 1.05 1.04 1.04 1.06 1.08 1.07 1.09 1.14 1.18 1.20 1.23 1.25 1.26 1.27 1.28 1.29 1.30 1.30 1.32 1.33 1.32 1.35 1.39 1.39 1.39 1.43 1.45 1.48 1.55 1.59 1.61 1.69 1.75 1.72 1.68 1.65 1.64 1.63 1.63 1.65 1.66 1.66 1.70 1.75 1.71 1.67
0.21 0.20 0.28 0.27 0.27 0.29 0.25 0.26 0.27 0.41 0.31 0.45 0.51 0.45 0.52 0.59 0.52 0.46 0.49 0.55 0.59 0.60 0.57 0.74 0.70 0.80 0.99 1.03 1.17 1.26 1.25 1.28 1.41 1.44 1.45 1.42 1.48 1.46 1.26 1.17 1.12 1.10 1.09 1.09 1.08 1.09 1.11 1.14 1.18 1.20 1.21 1.23 1.25 1.27 1.28 1.30 1.30 1.29 1.31 1.31 1.30 1.33 1.39 1.38 1.37 1.40 1.44 1.48 1.53 1.57 1.59 1.63 1.68 1.70 1.65 1.62 1.58 1.61 1.62 1.65 1.64 1.65 1.66 1.71 1.75 1.71
0.25 0.20 0.25 0.23 0.20 0.24 0.29 0.28 0.27 0.30 0.40 0.46 0.37 0.50 0.63 0.68 0.61 0.48 0.37 0.48 0.45 0.40 0.57 0.68 0.61 0.70 0.67 0.67 1.09 1.12 1.13 1.19 1.27 1.37 1.41 1.42 1.44 1.46 1.35 1.25 1.20 1.19 1.18 1.16 1.15 1.16 1.17 1.19 1.19 1.21 1.22 1.24 1.25 1.25 1.28 1.28 1.32 1.35 1.35 1.33 1.30 1.30 1.32 1.37 1.37 1.36 1.41 1.44 1.49 1.55 1.57 1.60 1.65 1.70 1.70 1.71 1.67 1.68 1.64 1.61 1.62 1.66 1.63 1.65 1.72 1.73
0.26 0.22 0.25 0.25 0.22 0.24 0.29 0.29 0.25 0.29 0.31 0.41 0.49 0.61 0.50 0.43 0.38 0.43 0.39 0.34 0.36 0.35 0.45 0.56 0.63 0.64 0.67 0.73 0.95 0.97 1.00 1.10 1.22 1.34 1.38 1.38 1.39 1.40 1.38 1.29 1.29 1.31 1.27 1.20 1.15 1.16 1.18 1.20 1.20 1.20 1.20 1.24 1.26 1.27 1.30 1.31 1.34 1.36 1.36 1.37 1.36 1.30 1.32 1.35 1.37 1.38 1.40 1.43 1.45 1.51 1.54 1.55 1.57 1.66 1.72 1.74 1.74 1.74 1.66 1.64 1.61 1.62 1.67 1.66 1.69 1.65
0.26 0.22 0.25 0.27 0.23 0.26 0.26 0.25 0.19 0.23 0.29 0.41 0.57 0.54 0.57 0.54 0.46 0.37 0.35 0.40 0.46 0.39 0.40 0.52 0.52 0.52 0.68 0.75 0.89 0.93 1.05 1.14 1.20 1.28 1.33 1.39 1.42 1.39 1.39 1.37 1.31 1.32 1.31 1.25 1.20 1.20 1.21 1.23 1.23 1.23 1.20 1.19 1.20 1.22 1.26 1.29 1.33 1.34 1.38 1.37 1.36 1.39 1.38 1.39 1.37 1.37 1.35 1.38 1.41 1.44 1.50 1.52 1.56 1.58 1.63 1.70 1.70 1.68 1.68 1.67 1.68 1.64 1.64 1.65 1.70 1.64
0.29 0.27 0.25 0.29 0.28 0.26 0.19 0.22 0.21 0.27 0.25 0.24 0.29 0.41 0.51 0.50 0.58 0.51 0.46 0.39 0.41 0.40 0.42 0.42 0.44 0.52 0.77 0.94 0.93 1.01 1.09 1.16 1.23 1.26 1.35 1.43 1.44 1.45 1.45 1.46 1.42 1.39 1.37 1.32 1.28 1.25 1.24 1.25 1.25 1.26 1.27 1.25 1.25 1.27 1.28 1.28 1.29 1.34 1.39 1.38 1.37 1.34 1.34 1.34 1.37 1.40 1.38 1.38 1.36 1.39 1.39 1.45 1.48 1.50 1.56 1.60 1.64 1.64 1.67 1.71 1.71 1.68 1.71 1.71 1.67 1.66
0.30 0.26 0.27 0.30 0.23 0.21 0.21 0.26 0.26 0.31 0.30 0.25 0.23 0.28 0.41 0.42 0.40 0.38 0.38 0.50 0.44 0.41 0.40 0.40 0.38 0.63 0.77 0.96 1.00 1.04 1.12 1.20 1.27 1.29 1.34 1.43 1.48 1.48 1.47 1.50 1.53 1.46 1.42 1.39 1.35 1.33 1.31 1.30 1.28 1.30 1.31 1.30 1.27 1.24 1.25 1.28 1.33 1.33 1.34 1.39 1.41 1.40 1.36 1.32 1.33 1.37 1.39 1.40 1.40 1.35 1.36 1.39 1.44 1.44 1.47 1.49 1.56 1.56 1.62 1.66 1.69 1.72 1.71 1.66 1.66 1.67
0.39 0.36 0.29 0.29 0.26 0.23 0.26 0.31 0.29 0.35 0.34 0.30 0.27 0.25 0.36 0.46 0.46 0.40 0.32 0.41 0.41 0.42 0.52 0.49 0.43 0.54 0.89 0.95 1.01 1.08 1.14 1.24 1.30 1.33 1.34 1.41 1.48 1.50 1.50 1.55 1.62 1.63 1.54 1.47 1.42 1.41 1.40 1.39 1.34 1.34 1.32 1.29 1.28 1.28 1.28 1.28 1.29 1.32 1.33 1.37 1.40 1.39 1.39 1.36 1.34 1.38 1.39 1.38 1.38 1.36 1.36 1.36 1.38 1.38 1.37 1.38 1.44 1.48 1.53 1.60 1.63 1.70 1.66 1.60 1.65 1.65
0.42 0.34 0.27 0.31 0.34 0.34 0.34 0.36 0.33 0.31 0.32 0.28 0.27 0.28 0.32 0.36 0.42 0.41 0.39 0.46 0.46 0.47 0.40 0.42 0.37 0.56 0.84 0.99 1.03 1.09 1.17 1.27 1.33 1.35 1.36 1.40 1.47 1.53 1.52 1.54 1.60 1.65 1.66 1.64 1.62 1.56 1.52 1.48 1.44 1.39 1.36 1.33 1.33 1.33 1.32 1.32 1.33 1.35 1.36 1.37 1.40 1.41 1.45 1.43 1.39 1.40 1.39 1.33 1.32 1.35 1.35 1.33 1.35 1.35 1.34 1.32 1.35 1.39 1.46 1.54 1.59 1.61 1.59 1.58 1.62 1.66
0.32 0.38 0.33 0.27 0.26 0.27 0.27 0.29 0.30 0.33 0.30 0.27 0.27 0.26 0.31 0.36 0.41 0.44 0.46 0.51 0.43 0.45 0.45 0.39 0.35 0.52 0.80 0.93 0.99 1.05 1.09 1.16 1.24 1.35 1.41 1.39 1.44 1.47 1.50 1.50 1.49 1.56 1.61 1.61 1.63 1.64 1.60 1.54 1.48 1.44 1.42 1.40 1.38 1.39 1.39 1.38 1.38 1.39 1.39 1.39 1.39 1.44 1.52 1.50 1.46 1.41 1.40 1.35 1.30 1.30 1.31 1.32 1.31 1.29 1.30 1.29 1.31 1.33 1.37 1.44 1.53 1.59 1.55 1.54 1.54 1.62
0.38 0.38 0.32 0.27 0.23 0.20 0.18 0.18 0.21 0.24 0.24 0.28 0.30 0.33 0.30 0.32 0.37 0.38 0.36 0.47 0.40 0.43 0.46 0.43 0.39 0.61 0.82 0.84 0.88 0.97 1.01 1.08 1.23 1.30 1.37 1.44 1.44 1.45 1.47 1.50 1.52 1.52 1.56 1.59 1.62 1.63 1.58 1.58 1.59 1.55 1.53 1.53 1.51 1.49 1.47 1.47 1.48 1.47 1.49 1.47 1.48 1.47 1.51 1.55 1.55 1.48 1.42 1.38 1.33 1.31 1.28 1.30 1.31 1.30 1.30 1.28 1.27 1.29 1.33 1.36 1.41 1.48 1.51 1.49 1.50 1.56
0.39 0.41 0.40 0.34 0.34 0.32 0.33 0.35 0.36 0.38 0.32 0.28 0.31 0.31 0.32 0.28 0.32 0.39 0.42 0.38 0.38 0.45 0.48 0.48 0.48 0.63 0.64 0.68 0.73 0.86 0.95 0.99 1.11 1.23 1.27 1.33 1.39 1.46 1.51 1.54 1.55 1.56 1.57 1.59 1.63 1.64 1.66 1.62 1.62 1.64 1.65 1.63 1.62 1.60 1.58 1.54 1.52 1.52 1.56 1.55 1.53 1.53 1.55 1.59 1.61 1.56 1.48 1.43 1.39 1.40 1.37 1.34 1.33 1.36 1.36 1.36 1.33 1.33 1.34 1.32 1.32 1.34 1.39 1.45 1.41 1.42
0.39 0.36 0.35 0.34 0.33 0.35 0.37 0.34 0.35 0.35 0.35 0.32 0.30 0.31 0.33 0.33 0.30 0.32 0.33 0.34 0.45 0.43 0.40 0.55 0.59 0.51 0.59 0.61 0.68 0.76 0.87 0.97 1.08 1.18 1.25 1.31 1.35 1.40 1.47 1.52 1.57 1.60 1.61 1.65 1.65 1.65 1.62 1.63 1.63 1.64 1.68 1.69 1.70 1.73 1.72 1.71 1.68 1.65 1.64 1.62 1.61 1.60 1.61 1.65 1.66 1.65 1.61 1.54 1.47 1.45 1.44 1.44 1.45 1.44 1.43 1.45 1.44 1.40 1.39 1.38 1.34 1.33 1.33 1.39 1.39 1.37
0.38 0.32 0.35 0.35 0.31 0.33 0.36 0.35 0.36 0.37 0.38 0.37 0.36 0.36 0.35 0.35 0.33 0.28 0.32 0.37 0.43 0.42 0.38 0.58 0.53 0.45 0.58 0.61 0.69 0.77 0.84 0.92 1.01 1.11 1.21 1.32 1.38 1.42 1.44 1.45 1.49 1.53 1.58 1.59 1.66 1.65 1.62 1.59 1.59 1.63 1.65 1.69 1.76 1.75 1.75 1.73 1.76 1.76 1.76 1.74 1.73 1.66 1.66 1.70 1.66 1.69 1.71 1.66 1.61 1.56 1.53 1.51 1.52 1.54 1.54 1.50 1.48 1.46 1.42 1.41 1.41 1.40 1.38 1.33 1.28 1.32
0.40 0.35 0.37 0.35 0.32 0.33 0.36 0.37 0.39 0.39 0.40 0.40 0.41 0.43 0.47 0.41 0.40 0.39 0.41 0.44 0.46 0.53 0.53 0.59 0.57 0.55 0.67 0.66 0.71 0.80 0.90 0.95 1.04 1.16 1.22 1.24 1.29 1.36 1.38 1.40 1.45 1.50 1.55 1.59 1.64 1.70 1.67 1.66 1.67 1.71 1.77 1.84 1.85 1.84 1.81 1.78 1.78 1.81 1.81 1.80 1.80 1.78 1.79 1.76 1.71 1.71 1.74 1.77 1.80 1.78 1.69 1.62 1.60 1.58 1.58 1.53 1.49 1.48 1.48 1.46 1.44 1.41 1.38 1.34 1.31 1.29
0.40 0.34 0.40 0.38 0.34 0.31 0.34 0.37 0.38 0.40 0.42 0.41 0.43 0.44 0.45 0.48 0.48 0.50 0.50 0.51 0.51 0.50 0.55 0.52 0.53 0.58 0.70 0.74 0.75 0.86 0.92 0.97 1.03 1.07 1.12 1.21 1.28 1.33 1.35 1.38 1.44 1.49 1.53 1.59 1.64 1.66 1.69 1.73 1.78 1.80 1.84 1.90 1.95 1.97 1.94 1.93 1.90 1.88 1.86 1.91 1.93 1.89 1.87 1.84 1.80 1.77 1.78 1.80 1.88 1.95 1.92 1.85 1.81 1.76 1.70 1.67 1.60 1.57 1.54 1.54 1.51 1.48 1.44 1.41 1.41 1.39
0.40 0.40 0.37 0.36 0.32 0.29 0.33 0.34 0.36 0.39 0.42 0.42 0.41 0.43 0.44 0.45 0.50 0.52 0.49 0.60 0.48 0.53 0.52 0.52 0.46 0.54 0.69 0.77 0.80 0.83 0.87 0.90 0.93 1.02 1.09 1.17 1.26 1.31 1.33 1.38 1.42 1.46 1.51 1.54 1.60 1.67 1.72 1.75 1.77 1.80 1.81 1.85 1.92 1.96 2.00 2.01 2.01 1.98 1.93 1.96 1.96 1.95 1.94 1.90 1.87 1.83 1.82 1.86 1.92 1.95 1.96 1.98 1.96 1.91 1.88 1.88 1.83 1.75 1.71 1.67 1.64 1.59 1.57 1.52 1.48 1.46
0.39 0.40 0.34 0.33 0.31 0.32 0.33 0.34 0.34 0.35 0.36 0.35 0.39 0.45 0.48 0.49 0.53 0.54 0.57 0.58 0.58 0.57 0.50 0.46 0.51 0.82 0.75 0.79 0.74 0.78 0.86 0.91 0.96 1.02 1.08 1.16 1.25 1.29 1.32 1.35 1.40 1.46 1.51 1.53 1.56 1.61 1.65 1.70 1.77 1.83 1.89 1.91 1.93 1.94 1.99 2.03 2.03 2.01 2.01 2.00 2.04 2.06 2.01 1.97 1.95 1.94 1.93 1.96 1.99 2.01 2.02 2.03 2.02 2.02 2.02 2.02 2.03 2.01 1.96 1.90 1.83 1.79 1.77 1.74 1.74 1.67
0.39 0.39 0.37 0.42 0.34 0.33 0.34 0.35 0.34 0.31 0.26 0.31 0.44 0.54 0.54 0.49 0.51 0.50 0.55 0.59 0.64 0.65 0.65 0.69 0.77 0.90 0.81 0.74 0.71 0.74 0.83 0.91 0.99 1.09 1.18 1.18 1.20 1.25 1.30 1.36 1.42 1.50 1.56 1.59 1.61 1.62 1.65 1.69 1.73 1.80 1.84 1.89 1.94 2.00 2.03 2.07 2.05 2.08 2.11 2.08 2.10 2.08 2.07 2.04 2.02 2.02 2.02 2.03 2.02 2.03 2.07 2.10 2.10 2.08 2.10 2.14 2.15 2.15 2.11 2.07 2.04 2.05 2.06 2.07 2.08 2.01
0.34 0.35 0.38 0.40 0.35 0.35 0.40 0.37 0.31 0.26 0.28 0.41 0.46 0.47 0.52 0.58 0.56 0.58 0.62 0.65 0.67 0.68 0.69 0.71 0.71 0.75 0.82 0.82 0.82 0.82 0.91 1.00 1.08 1.08 1.15 1.23 1.24 1.25 1.25 1.30 1.37 1.44 1.51 1.56 1.58 1.60 1.64 1.68 1.72 1.77 1.79 1.86 1.92 1.95 2.03 2.02 2.07 2.09 2.07 2.09 2.05 2.07 2.05 2.04 2.01 2.00 2.03 2.05 2.07 2.09 2.12 2.13 2.11 2.08 2.11 2.14 2.17 2.17 2.15 2.15 2.17 2.17 2.19 2.20 2.19 2.17
0.34 0.33 0.37 0.35 0.39 0.39 0.37 0.36 0.29 0.31 0.38 0.42 0.42 0.44 0.49 0.53 0.55 0.54 0.59 0.65 0.69 0.71 0.71 0.73 0.74 0.80 0.82 0.83 0.87 0.94 0.94 1.01 1.06 1.12 1.17 1.24 1.27 1.24 1.22 1.24 1.31 1.37 1.41 1.46 1.51 1.55 1.60 1.65 1.71 1.73 1.75 1.84 1.90 1.92 1.96 1.95 2.01 2.00 1.96 2.00 1.98 2.02 2.03 2.02 1.99 2.00 2.03 2.03 2.05 2.06 2.07 2.06 2.05 2.05 2.07 2.09 2.12 2.12 2.13 2.15 2.16 2.15 2.21 2.22 2.23 2.25
0.34 0.34 0.34 0.35 0.36 0.29 0.32 0.34 0.35 0.43 0.41 0.40 0.40 0.41 0.43 0.42 0.47 0.49 0.54 0.62 0.70 0.72 0.73 0.76 0.77 0.78 0.82 0.87 0.92 0.94 0.97 0.96 0.94 1.02 1.16 1.18 1.20 1.23 1.22 1.25 1.31 1.34 1.40 1.43 1.51 1.58 1.65 1.71 1.72 1.74 1.79 1.78 1.86 1.93 1.87 1.92 1.96 1.94 1.92 1.91 1.95 1.96 1.97 1.95 1.92 1.92 1.94 1.94 1.96 1.98 2.00 2.01 1.99 1.97 1.98 2.00 2.02 2.03 2.05 2.07 2.09 2.13 2.17 2.14 2.16 2.18
0.34 0.37 0.40 0.33 0.33 0.34 0.30 0.30 0.33 0.34 0.31 0.38 0.44 0.51 0.53 0.53 0.52 0.57 0.57 0.61 0.68 0.75 0.79 0.80 0.77 0.81 0.81 0.88 0.92 0.95 0.96 0.83 0.75 0.86 1.07 1.16 1.22 1.22 1.26 1.28 1.35 1.41 1.44 1.43 1.49 1.54 1.59 1.63 1.68 1.70 1.63 1.64 1.61 1.66 1.78 1.82 1.87 1.86 1.85 1.88 1.88 1.87 1.85 1.84 1.82 1.84 1.84 1.84 1.86 1.88 1.90 1.91 1.89 1.88 1.91 1.94 1.92 1.94 1.98 2.03 2.07 2.06 2.11 2.07 2.07 2.10
0.33 0.34 0.35 0.32 0.33 0.30 0.30 0.29 0.30 0.29 0.35 0.45 0.50 0.50 0.56 0.56 0.55 0.66 0.53 0.47 0.62 0.76 0.85 0.85 0.80 0.82 0.86 0.88 0.94 0.95 0.84 0.69 0.71 0.84 1.04 1.13 1.20 1.26 1.27 1.30 1.34 1.38 1.40 1.42 1.40 1.39 1.39 1.46 1.51 1.52 1.55 1.52 1.48 1.55 1.57 1.56 1.55 1.60 1.62 1.67 1.72 1.73 1.73 1.72 1.74 1.78 1.79 1.80 1.82 1.83 1.86 1.87 1.87 1.86 1.87 1.87 1.89 1.91 1.92 1.94 1.95 1.98 2.00 1.99 2.00 2.03
0.32 0.32 0.32 0.28 0.31 0.32 0.30 0.27 0.28 0.38 0.43 0.46 0.49 0.54 0.59 0.59 0.58 0.50 0.35 0.43 0.57 0.65 0.84 0.86 0.85 0.85 0.89 0.95 0.98 0.94 0.86 0.75 0.78 0.90 1.08 1.15 1.22 1.27 1.29 1.30 1.33 1.33 1.32 1.35 1.36 1.34 1.33 1.37 1.36 1.35 1.35 1.37 1.42 1.46 1.46 1.43 1.40 1.38 1.40 1.43 1.47 1.49 1.53 1.55 1.59 1.66 1.66 1.70 1.73 1.74 1.78 1.80 1.82 1.84 1.84 1.82 1.86 1.87 1.88 1.90 1.89 1.87 1.85 1.83 1.85 1.86
0.27 0.29 0.29 0.31 0.29 0.30 0.29 0.33 0.38 0.42 0.48 0.49 0.50 0.54 0.56 0.61 0.54 0.35 0.30 0.48 0.57 0.66 0.77 0.91 0.91 0.91 0.95 0.95 0.98 0.90 1.00 1.04 1.04 1.11 1.18 1.21 1.23 1.29 1.37 1.40 1.37 1.32 1.29 1.29 1.29 1.30 1.27 1.26 1.27 1.26 1.27 1.30 1.30 1.30 1.29 1.27 1.22 1.21 1.26 1.29 1.30 1.33 1.41 1.50 1.53 1.51 1.49 1.52 1.56 1.61 1.62 1.63 1.66 1.64 1.64 1.65 1.64 1.66 1.68 1.69 1.68 1.70 1.69 1.68 1.69 1.71
0.26 0.24 0.25 0.29 0.28 0.27 0.26 0.27 0.36 0.45 0.53 0.56 0.56 0.55 0.57 0.49 0.40 0.34 0.58 0.65 0.63 0.66 0.79 0.89 0.92 0.96 0.96 1.00 1.05 1.05 1.10 1.14 1.14 1.15 1.15 1.17 1.22 1.27 1.31 1.31 1.29 1.28 1.29 1.30 1.25 1.23 1.22 1.19 1.15 1.11 1.11 1.11 1.13 1.14 1.13 1.11 1.09 1.12 1.14 1.13 1.16 1.25 1.33 1.36 1.40 1.45 1.43 1.40 1.41 1.45 1.51 1.51 1.49 1.47 1.48 1.49 1.46 1.45 1.46 1.49 1.50 1.49 1.47 1.47 1.52 1.55
0.22 0.28 0.25 0.27 0.29 0.27 0.26 0.26 0.30 0.30 0.57 0.59 0.56 0.57 0.54 0.43 0.53 0.60 0.62 0.65 0.68 0.70 0.77 0.87 0.90 0.98 0.99 1.01 1.08 1.10 1.11 1.11 1.12 1.10 1.13 1.16 1.16 1.17 1.18 1.22 1.24 1.21 1.20 1.16 1.16 1.18 1.13 1.06 1.00 0.98 0.99 1.04 1.05 1.06 1.06 1.02 0.99 1.02 1.05 1.03 1.07 1.15 1.17 1.19 1.19 1.21 1.28 1.28 1.25 1.27 1.31 1.37 1.40 1.40 1.40 1.38 1.37 1.34 1.32 1.35 1.38 1.39 1.38 1.35 1.32 1.32
0.32 0.29 0.24 0.27 0.29 0.28 0.25 0.26 0.32 0.48 0.56 0.64 0.58 0.46 0.54 0.56 0.63 0.64 0.61 0.58 0.65 0.75 0.80 0.86 0.91 0.98 1.02 1.04 1.06 1.08 1.10 1.08 1.10 1.14 1.14 1.15 1.11 1.09 1.13 1.17 1.21 1.22 1.19 1.20 1.17 1.09 1.02 0.95 0.95 0.96 0.99 1.02 1.03 1.03 1.02 0.98 0.92 0.94 0.94 0.95 1.05 1.08 1.10 1.12 1.10 1.10 1.14 1.13 1.13 1.14 1.15 1.15 1.17 1.22 1.24 1.24 1.23 1.22 1.20 1.16 1.17 1.19 1.18 1.15 1.12 1.09
0.37 0.32 0.33 0.30 0.32 0.37 0.38 0.43 0.51 0.57 0.61 0.64 0.63 0.62 0.64 0.67 0.68 0.67 0.66 0.64 0.64 0.70 0.80 0.84 0.87 0.93 0.97 1.05 1.04 1.06 1.06 1.11 1.13 1.15 1.13 1.18 1.19 1.16 1.17 1.17 1.17 1.13 1.13 1.12 1.09 1.06 1.00 0.93 0.91 0.92 0.95 0.99 0.99 0.98 0.95 0.93 0.86 0.86 0.86 0.93 1.00 0.99 1.00 1.02 1.05 1.06 1.02 1.01 0.99 1.01 1.04 1.06 1.07 1.07 1.08 1.06 1.06 1.04 1.04 1.04 1.04 1.02 1.03 1.01 0.98 0.95
0.41 0.42 0.41 0.43 0.34 0.41 0.47 0.50 0.57 0.58 0.59 0.61 0.64 0.66 0.66 0.68 0.71 0.71 0.69 0.67 0.72 0.75 0.80 0.81 0.86 0.89 0.94 1.02 0.95 1.01 1.03 1.08 1.08 1.10 1.17 1.22 1.24 1.24 1.25 1.25 1.22 1.17 1.10 1.06 1.01 1.03 1.02 0.98 0.96 0.93 0.91 0.92 0.93 0.92 0.90 0.86 0.81 0.74 0.77 0.85 0.90 0.91 0.90 0.89 0.88 0.88 0.88 0.90 0.92 0.93 0.94 0.93 0.94 0.95 0.96 0.94 0.93 0.91 0.91 0.90 0.88 0.89 0.89 0.91 0.89 0.88
0.40 0.41 0.39 0.35 0.40 0.40 0.34 0.49 0.46 0.51 0.56 0.58 0.60 0.64 0.68 0.69 0.67 0.69 0.69 0.71 0.75 0.81 0.86 0.88 0.89 0.91 0.95 1.00 0.98 1.02 1.06 1.10 1.09 1.10 1.16 1.22 1.20 1.18 1.17 1.19 1.17 1.15 1.08 1.04 1.06 1.03 0.99 0.96 0.94 0.91 0.88 0.84 0.86 0.85 0.84 0.81 0.78 0.75 0.75 0.76 0.79 0.83 0.84 0.82 0.80 0.80 0.81 0.81 0.83 0.86 0.92 0.91 0.92 0.93 0.88 0.86 0.86 0.84 0.85 0.87 0.88 0.84 0.82 0.82 0.82 0.81
0.39 0.45 0.40 0.36 0.36 0.37 0.39 0.49 0.51 0.52 0.53 0.56 0.58 0.57 0.59 0.62 0.65 0.67 0.69 0.72 0.75 0.81 0.86 0.90 0.94 0.92 0.97 0.96 1.01 1.02 1.03 1.09 1.05 1.04 1.11 1.17 1.21 1.20 1.16 1.13 1.13 1.13 1.10 1.08 1.08 1.07 1.00 0.95 0.91 0.89 0.86 0.83 0.81 0.80 0.79 0.78 0.77 0.78 0.78 0.78 0.81 0.78 0.76 0.74 0.75 0.75 0.76 0.78 0.80 0.81 0.81 0.81 0.81 0.86 0.91 0.91 0.93 0.93 0.90 0.90 0.90 0.87 0.87 0.88 0.85 0.82
0.50 0.45 0.38 0.42 0.41 0.40 0.45 0.48 0.52 0.54 0.52 0.53 0.54 0.58 0.60 0.61 0.61 0.62 0.64 0.66 0.72 0.74 0.78 0.85 0.91 0.96 0.99 1.01 1.01 1.00 0.99 1.04 1.06 1.10 1.12 1.17 1.20 1.19 1.18 1.16 1.14 1.12 1.09 1.06 1.03 0.99 0.96 0.94 0.93 0.89 0.86 0.82 0.80 0.78 0.74 0.72 0.74 0.76 0.75 0.76 0.78 0.75 0.73 0.69 0.68 0.70 0.71 0.75 0.78 0.77 0.78 0.79 0.79 0.85 0.90 0.87 0.92 0.96 1.03 1.00 0.94 0.94 0.90 0.93 0.94 0.89
0.45 0.42 0.47 0.41 0.38 0.41 0.47 0.50 0.51 0.45 0.49 0.53 0.56 0.58 0.60 0.63 0.61 0.59 0.60 0.61 0.62 0.66 0.73 0.75 0.82 0.90 0.94 0.98 1.01 1.00 0.97 1.00 1.01 1.01 1.04 1.10 1.19 1.19 1.15 1.14 1.12 1.11 1.12 1.09 1.04 1.03 1.00 0.99 0.97 0.94 0.90 0.86 0.84 0.81 0.80 0.81 0.80 0.81 0.80 0.79 0.78 0.77 0.74 0.72 0.71 0.69 0.69 0.72 0.73 0.74 0.75 0.78 0.81 0.84 0.86 0.88 0.89 0.90 0.89 0.93 0.91 0.88 0.92 0.87 0.84 0.81
0.46 0.53 0.45 0.42 0.44 0.45 0.53 0.55 0.57 0.55 0.54 0.56 0.60 0.64 0.65 0.68 0.66 0.60 0.57 0.57 0.60 0.63 0.65 0.69 0.73 0.79 0.83 0.91 0.97 0.95 0.98 0.98 0.97 0.98 1.01 1.07 1.09 1.13 1.08 1.07 1.07 1.10 1.10 1.09 1.02 0.99 0.98 0.98 0.99 0.96 0.89 0.88 0.88 0.87 0.87 0.87 0.87 0.88 0.87 0.85 0.81 0.79 0.74 0.72 0.71 0.70 0.69 0.70 0.70 0.70 0.72 0.72 0.73 0.72 0.77 0.82 0.84 0.87 0.84 0.81 0.81 0.83 0.82 0.82 0.81 0.78
Wind_Speed
24 22 22 21 19 19 19 18 15 11 10 12 13 11 10 10 9 9 9 10 13 15 17 19 17 16 18 18 18 18 18 18 18 19 19 19 19 18 18 17 17 17 16 16 16 16 15 15 14 14 13 13 12 12 12 12 11 11 11 11 11 11 11 11 11 11 11 11 11 11 11 11 12 12 13 13 13 13 13 14 14 14 14 13 13 13
24 22 22 22 19 18 19 18 16 13 12 13 13 12 11 10 8 8 9 11 13 14 16 18 17 17 18 18 19 18 18 18 19 19 19 19 19 19 18 18 18 17 16 17 16 16 16 15 15 14 13 13 13 12 12 12 12 11 11 11 11 11 11 10 10 10 11 10 10 11 11 11 12 12 12 12 13 13 13 14 14 13 13 13 13 12
24 22 23 22 19 18 18 17 16 14 14 14 13 12 12 10 8 7 8 12 14 13 15 16 16 16 18 18 19 19 18 18 18 19 19 20 20 19 19 18 18 17 17 17 17 17 16 16 16 15 14 14 13 13 12 12 12 12 11 11 11 11 11 11 10 10 10 10 10 10 11 11 11 12 12 12 12 13 13 13 13 13 13 12 12 12
22 22 23 22 20 20 19 18 17 15 14 14 14 12 11 11 10 8 9 12 13 12 14 16 16 16 17 18 19 19 19 18 18 18 18 19 19 19 19 19 18 18 18 17 17 17 17 16 16 15 14 14 14 13 13 13 12 12 11 11 11 11 11 11 11 10 10 10 10 10 11 11 11 11 12 12 12 13 13 13 13 12 12 12 11 11
21 20 22 21 21 21 19 18 18 16 15 14 14 12 10 11 10 8 10 12 11 10 12 15 16 16 17 18 18 19 18 18 18 19 19 19 19 19 19 19 19 19 18 18 18 18 17 17 16 16 15 14 14 14 13 13 13 12 12 12 11 11 11 11 11 10 10 10 10 11 11 11 11 11 11 12 12 12 12 12 12 12 12 11 11 10
21 19 21 21 21 22 20 19 19 17 15 14 15 13 10 11 11 10 12 12 11 11 12 14 15 16 17 17 17 18 19 19 19 20 20 20 20 20 20 20 19 19 18 18 18 18 18 17 17 16 16 15 14 14 14 14 13 13 12 12 11 11 11 11 11 11 10 10 10 11 11 11 11 11 11 11 12 12 12 12 12 11 11 11 10 10
20 20 22 22 22 22 20 19 19 17 15 13 14 13 11 12 13 12 12 12 11 11 12 13 14 15 17 18 18 18 19 20 20 20 21 20 20 20 20 20 20 19 19 18 18 18 18 17 17 17 16 16 15 14 14 14 13 13 13 13 12 11 11 11 11 11 10 10 10 10 10 10 10 10 11 11 11 11 11 11 11 11 11 10 10 9
20 20 22 23 22 22 21 19 19 18 15 12 12 13 13 13 14 14 12 11 9 9 11 12 13 15 15 18 19 20 20 21 21 21 21 21 21 21 21 20 20 20 19 19 18 18 18 18 17 17 17 16 15 15 14 14 14 14 13 13 12 12 11 11 11 11 11 10 10 10 10 10 10 10 10 10 10 10 11 11 11 10 10 10 9 9
21 21 22 23 22 21 21 19 18 19 16 12 12 13 14 14 14 14 12 11 10 9 10 11 13 13 13 16 19 20 21 21 21 22 22 22 22 22 22 21 21 20 20 20 19 19 19 18 18 17 17 17 16 15 14 14 14 14 14 13 13 12 12 12 12 12 11 10 10 10 10 10 10 10 10 10 10 10 10 10 10 10 9 9 9 9
21 23 21 22 23 21 21 20 19 20 17 13 13 14 14 14 14 14 12 11 10 9 9 12 14 12 10 14 18 20 22 22 22 22 22 22 23 22 22 22 22 21 20 20 20 20 19 18 18 18 17 17 16 15 15 14 14 14 14 14 14 13 12 12 12 12 12 11 10 10 10 10 10 10 10 10 10 10 10 10 9 9 9 9 9 8
18 22 21 22 22 21 20 19 20 21 17 15 15 15 14 14 14 13 12 10 10 10 9 12 14 13 10 11 16 19 21 23 22 21 22 22 23 23 23 22 22 21 21 21 21 20 20 19 19 18 18 17 17 16 15 15 14 14 14 14 14 14 13 13 13 13 12 12 11 10 10 10 10 10 10 10 10 10 10 9 9 9 9 8 8 8
19 21 21 22 23 21 19 19 21 21 20 18 17 16 15 14 14 14 12 11 11 10 9 11 13 14 11 10 12 16 21 24 22 21 22 23 23 23 23 23 22 22 22 21 21 21 21 20 19 19 18 18 17 17 16 15 15 15 14 14 14 14 14 14 13 13 12 12 11 11 11 10 10 10 10 10 10 10 10 9 9 9 8 8 8 8
21 21 21 22 23 23 21 20 21 21 21 21 18 17 16 14 14 15 13 12 12 9 9 11 12 12 11 10 11 13 20 25 22 21 22 23 24 24 23 23 23 22 22 22 21 21 21 20 20 19 19 18 18 17 17 16 15 15 15 15 15 15 15 14 14 14 13 12 12 11 11 11 11 10 10 10 9 9 9 9 9 8 8 8 8 8
20 22 23 23 22 24 24 21 21 22 23 23 20 19 18 15 15 16 14 13 12 10 10 11 11 11 9 9 10 11 18 23 22 22 23 23 23 24 24 24 23 23 23 22 22 21 21 21 20 20 19 19 18 18 18 17 16 16 15 15 15 15 15 15 15 14 14 13 12 12 12 12 11 11 10 10 9 9 9 9 9 8 8 8 8 8
19 20 23 25 22 23 26 23 20 21 23 23 21 20 19 16 14 14 14 13 12 10 10 11 11 9 8 8 9 10 15 19 20 22 23 23 23 23 24 24 23 23 23 22 22 22 22 22 21 20 20 19 19 18 18 17 17 17 16 16 16 16 16 16 16 15 15 14 13 13 12 12 12 11 11 10 10 9 9 9 9 8 8 8 8 8
19 17 19 25 23 23 26 24 21 21 22 22 21 21 19 17 15 13 12 12 11 9 10 12 11 8 8 9 10 10 12 15 17 20 22 23 24 24 24 24 24 23 23 23 23 22 22 22 22 21 21 20 19 19 18 18 18 18 17 17 16 16 16 16 16 16 15 15 14 13 13 13 12 12 11 10 10 10 10 9 9 9 8 8 8 8
19 16 17 23 23 23 24 25 23 22 20 20 22 23 19 17 16 14 13 12 12 12 11 12 12 10 10 10 11 12 12 13 15 17 20 23 25 26 25 25 24 23 23 23 23 22 22 22 22 21 21 20 20 19 19 19 18 18 18 18 17 17 16 16 16 16 16 15 15 14 14 13 13 13 12 11 10 10 10 10 9 9 9 8 8 8
16 16 17 22 23 23 24 23 24 24 21 19 21 23 19 16 16 15 13 13 14 13 11 12 13 12 12 11 11 13 13 13 14 15 18 22 25 27 26 25 25 24 24 23 23 23 22 22 22 22 21 21 20 20 20 19 19 18 18 18 18 18 17 16 16 16 16 16 15 15 14 14 14 13 13 11 11 10 10 10 10 9 9 9 8 8
15 15 16 20 23 23 23 23 23 25 25 21 19 21 20 18 18 17 15 13 13 14 12 12 13 13 13 12 12 13 14 13 14 14 16 21 24 26 26 26 26 25 24 23 23 23 22 22 22 22 22 21 21 20 20 20 19 19 19 19 19 18 18 17 17 16 16 16 15 15 15 15 15 14 13 12 12 11 10 10 10 10 9 9 9 9
15 15 14 18 20 21 23 23 22 23 25 22 19 20 20 19 18 17 16 14 13 13 12 12 12 12 12 12 13 13 13 13 14 14 15 19 22 24 25 26 26 25 24 24 23 22 22 22 22 22 22 22 21 21 20 20 20 19 19 19 19 19 18 18 17 17 17 16 16 16 15 15 15 15 14 14 13 12 11 11 11 10 10 10 9 9
15 16 14 15 19 21 22 24 23 22 23 24 22 21 20 20 19 17 17 16 14 12 11 11 11 10 10 11 12 13 12 12 14 14 15 18 21 22 23 25 26 25 24 24 23 23 22 22 22 22 22 22 21 21 20 20 20 20 19 19 19 19 19 19 18 17 17 17 17 16 16 16 16 15 15 14 14 13 12 12 11 11 11 10 10 10
16 16 15 15 18 21 22 24 24 22 22 24 23 22 21 21 20 18 17 16 15 14 12 11 10 9 8 10 11 13 13 12 13 14 15 17 20 23 23 23 24 25 25 24 24 24 23 23 22 22 22 22 22 22 21 20 20 20 20 19 19 19 19 19 19 18 17 17 17 17 16 16 16 16 16 15 15 14 14 13 12 12 11 11 11 11
14 16 17 16 16 18 19 22 23 21 21 23 23 23 22 21 21 19 17 16 16 15 13 12 11 9 8 9 10 12 13 12 14 14 14 16 19 22 23 23 22 23 24 24 24 24 23 23 23 22 22 22 22 22 22 21 21 21 20 20 19 19 19 19 19 18 18 18 18 18 17 17 16 16 16 16 16 15 15 14 13 13 12 12 12 11
14 16 17 17 16 15 16 19 21 21 21 22 23 23 23 22 22 21 18 15 15 16 15 14 12 10 9 9 10 11 12 13 14 14 15 15 17 19 22 24 23 22 22 23 23 23 22 23 23 22 22 23 22 22 22 22 22 21 21 20 20 20 20 19 19 19 18 18 18 18 18 17 17 17 17 17 16 16 16 15 14 14 14 13 13 12
15 15 17 18 17 17 18 19 21 23 23 22 22 24 24 24 24 23 20 16 15 16 16 15 13 10 9 10 10 11 12 14 14 14 15 16 16 17 20 22 24 23 22 22 23 23 22 22 23 23 23 23 23 23 23 23 22 22 22 21 21 20 20 20 19 19 19 18 18 18 18 18 18 17 17 17 17 17 17 16 15 15 15 14 14 13
14 14 16 17 17 17 18 19 19 21 23 23 22 23 23 24 24 22 20 18 17 16 17 16 14 11 11 12 11 11 13 13 14 15 15 15 16 17 18 20 22 23 23 24 24 24 24 23 23 23 23 23 23 23 23 23 23 23 22 22 21 21 20 20 20 19 19 18 18 18 18 18 18 18 18 18 17 17 17 17 17 16 16 15 15 15
14 13 15 16 14 13 14 16 16 18 21 22 22 23 23 24 24 22 21 20 19 17 17 17 16 13 13 14 13 13 13 13 14 14 15 15 15 16 17 19 20 20 22 24 25 25 25 25 25 25 24 24 24 24 24 24 24 24 23 23 23 22 21 21 21 20 20 19 19 19 18 18 18 18 18 18 18 18 17 18 18 17 17 17 16 16
14 13 14 14 14 12 12 14 16 17 19 19 20 22 23 23 24 24 23 21 19 18 17 17 17 16 14 14 15 14 14 13 13 15 15 15 16 16 16 17 18 19 19 21 24 27 27 26 26 26 26 26 25 24 24 25 25 24 24 23 23 23 22 22 22 21 20 20 19 19 19 19 19 18 18 18 18 18 18 18 18 18 18 18 17 17
14 13 12 13 13 13 13 14 16 17 17 16 16 18 20 22 23 24 24 21 19 18 16 15 16 16 15 15 16 16 15 14 14 15 15 15 16 16 16 17 18 18 18 18 20 24 27 27 26 26 26 27 27 26 25 25 25 24 24 24 24 24 23 23 23 23 22 21 20 19 19 19 19 19 19 19 19 19 19 19 19 19 19 19 19 19
14 12 12 13 12 12 13 14 15 16 16 15 14 14 16 19 21 22 22 20 19 18 16 15 15 15 14 14 15 15 15 15 15 15 15 15 16 16 17 17 18 18 18 17 17 20 24 26 27 28 28 26 27 27 27 26 25 25 24 24 24 24 24 24 24 23 23 22 21 20 20 20 20 20 20 20 20 19 19 19 19 19 19 20 20 19
14 13 12 13 13 12 13 14 15 16 16 14 12 12 13 15 18 19 19 19 19 19 18 17 17 15 14 14 14 14 15 15 15 16 16 16 16 16 17 17 17 17 17 17 17 18 20 21 23 27 29 28 26 27 27 26 26 25 25 24 24 24 24 24 24 23 23 23 22 22 21 21 21 21 21 21 21 20 20 20 20 20 20 20 20 20
14 13 13 15 14 12 12 14 15 16 17 14 11 11 13 14 15 16 17 17 18 18 18 18 17 16 15 15 15 15 16 16 16 16 17 16 16 16 16 16 16 17 16 16 17 17 18 18 18 21 25 27 26 26 27 27 27 26 26 25 24 24 25 25 24 24 24 23 22 22 22 22 22 22 22 22 22 21 21 21 21 21 21 21 21 21
14 15 14 16 16 12 11 13 15 17 19 15 11 12 13 14 14 15 15 16 16 16 16 16 15 14 16 17 16 16 17 17 17 17 17 17 17 17 16 15 14 15 16 16 15 15 16 17 17 17 19 22 23 24 26 27 27 26 26 25 24 24 25 25 24 24 24 23 23 23 23 23 23 23 23 23 23 23 22 22 22 22 22 22 22 22
14 16 15 15 16 14 11 12 15 18 18 15 13 13 14 14 14 15 15 15 16 16 15 15 14 14 15 16 17 17 17 17 17 17 18 18 18 17 16 15 14 14 14 15 15 16 16 16 16 15 15 17 19 20 22 25 26 26 25 24 24 24 24 24 24 23 23 23 23 23 23 23 23 23 23 23 22 22 23 23 23 23 23 22 23 23
13 16 15 15 16 15 13 13 16 17 15 13 13 13 14 14 15 15 16 15 15 15 15 15 16 15 16 16 17 17 18 17 18 18 18 19 18 17 16 16 15 15 14 15 16 17 17 17 17 16 15 16 17 18 19 21 23 24 24 23 24 23 23 23 23 23 22 22 22 22 21 21 21 21 21 21 21 21 21 22 22 23 22 22 22 22
12 14 15 16 16 16 15 15 16 14 13 13 13 12 13 14 14 15 16 14 14 15 15 15 15 16 17 17 17 17 18 18 18 18 18 19 19 18 17 17 16 16 16 15 15 16 17 17 16 15 15 15 15 15 16 18 19 20 20 21 22 22 22 22 21 21 20 20 19 19 19 19 19 19 19 19 19 19 20 20 20 20 21 21 21 21
11 13 14 16 17 18 18 16 15 15 14 14 13 12 13 14 14 15 15 13 13 15 15 15 15 16 17 17 17 17 18 18 18 19 18 19 19 18 18 17 17 17 17 16 16 15 16 15 14 14 14 13 12 12 13 15 16 16 17 18 18 19 20 21 20 19 19 18 18 18 18 18 18 18 18 17 17 17 17 17 18 18 18 18 18 19
11 12 13 15 16 18 19 17 16 17 17 15 14 13 13 14 15 16 16 13 12 14 15 16 15 16 17 17 17 18 19 19 19 19 19 19 18 18 18 17 17 17 17 17 17 16 16 15 14 15 15 14 13 12 12 12 12 13 14 14 15 15 16 18 19 18 18 18 17 17 17 17 17 17 17 16 16 16 15 15 15 15 15 15 14 15
10 11 13 14 15 17 19 19 17 16 15 15 15 14 14 14 15 16 17 14 12 13 15 16 15 16 17 18 19 20 20 19 19 19 19 19 18 18 18 18 17 17 18 18 18 18 17 16 16 15 15 14 14 14 13 13 12 12 12 12 13 13 14 15 16 17 17 16 16 16 15 15 15 15 16 15 15 15 14 14 14 13 13 13 13 13
8 9 11 13 15 16 18 18 16 14 13 13 13 14 14 14 16 18 18 15 12 13 15 15 15 16 18 18 19 20 19 18 19 20 20 20 19 18 19 19 19 19 19 19 19 19 19 18 18 17 16 15 15 15 15 15 14 13 13 12 12 12 12 13 14 15 15 16 16 16 15 15 15 15 15 15 14 14 14 13 13 13 13 13 13 13
7 8 9 11 13 14 17 17 14 13 12 12 13 13 13 14 17 18 17 15 13 14 15 15 15 16 17 18 20 19 18 17 18 20 21 21 20 19 19 19 20 20 20 19 20 20 20 20 19 18 18 17 17 17 17 17 16 15 14 14 14 13 14 14 15 14 14 15 16 16 16 16 15 15 15 15 15 14 14 14 14 14 13 13 12 12
6 7 8 9 10 11 14 16 15 13 12 13 14 14 14 14 16 16 15 15 15 14 15 15 15 16 17 18 19 18 17 16 18 20 21 21 20 19 19 20 20 20 20 20 20 20 20 20 19 18 18 18 17 17 17 17 17 16 16 15 15 15 16 16 16 16 15 15 15 15 16 16 16 16 16 16 15 15 14 14 14 14 14 14 13 13
5 6 7 8 9 10 12 15 15 13 11 12 14 14 14 14 15 15 15 15 14 14 15 16 15 16 18 18 18 18 17 18 19 20 20 20 20 19 19 20 20 20 20 20 20 20 20 20 20 19 18 18 18 17 17 17 17 16 16 16 16 17 17 17 17 17 17 16 16 16 16 16 17 17 17 16 16 16 15 15 15 15 14 14 14 13
5 6 6 6 8 9 10 11 12 12 11 11 12 13 13 14 16 16 16 16 15 14 14 15 15 16 18 19 18 18 18 19 19 19 19 18 18 19 19 20 20 20 20 19 19 20 20 20 20 19 19 19 18 18 18 18 17 17 17 17 17 17 17 17 18 18 17 17 17 17 17 17 17 17 17 17 17 17 16 16 16 15 15 15 15 15
6 6 7 6 7 8 8 8 9 10 10 11 11 12 13 14 14 16 16 16 16 15 15 15 16 16 18 19 18 18 19 20 19 18 18 18 18 18 19 19 19 19 19 19 19 19 19 19 20 19 19 19 18 18 18 18 18 17 17 18 18 18 18 18 18 18 18 18 18 18 18 18 18 18 18 18 18 18 18 18 17 17 17 16 16 16
6 7 8 8 7 8 8 8 9 9 9 9 10 11 13 13 13 14 15 15 16 16 16 15 16 17 19 19 18 18 20 20 19 18 18 19 18 18 19 20 20 19 19 19 20 20 20 20 20 20 19 19 19 19 18 18 18 18 18 18 19 19 19 18 18 18 18 18 19 19 19 19 19 19 19 19 19 19 19 19 18 18 18 18 18 18
5 7 8 8 9 9 9 8 8 8 8 8 9 9 10 11 12 13 13 14 15 16 16 16 16 16 18 19 19 19 20 21 20 20 20 20 20 19 20 21 20 20 20 20 20 20 20 20 20 20 20 20 20 20 20 20 19 19 19 19 19 19 19 19 19 19 19 20 20 20 20 20 20 20 20 20 20 20 20 20 20 20 20 19 19 20
5 6 7 8 9 9 9 9 9 9 8 8 9 9 9 9 10 11 12 13 14 15 16 16 17 17 18 19 19 20 21 21 20 21 21 21 20 20 20 21 20 20 21 21 21 20 20 21 21 21 20 20 20 21 21 21 21 21 20 20 20 20 20 20 20 20 20 21 21 21 21 22 22 21 21 22 22 21 21 21 21 21 21 21 21 21
6 6 6 7 8 9 9 10 11 10 9 8 8 9 9 10 10 10 10 11 12 13 14 15 16 17 18 19 19 20 21 21 21 21 21 21 21 21 21 21 21 22 22 22 23 23 22 22 22 21 21 21 21 22 22 22 22 22 22 21 21 21 21 21 21 21 21 22 22 22 22 22 23 23 23 23 23 23 23 23 23 23 23 23 23 23
8 7 7 8 9 9 9 9 10 11 10 9 9 10 10 10 10 10 10 10 10 12 13 15 15 16 17 19 20 21 21 22 24 24 22 21 21 22 22 21 21 22 23 23 24 24 24 23 23 22 22 22 22 22 22 22 22 22 22 22 22 22 22 22 22 22 23 23 23 23 23 23 24 24 24 25 25 25 25 25 25 25 25 25 24 25
8 8 8 9 9 8 8 8 10 11 11 10 11 11 11 11 11 11 11 11 11 11 13 14 16 16 16 17 19 21 22 23 24 25 25 24 23 24 24 22 20 21 23 24 24 24 24 24 24 24 23 23 23 23 22 22 22 22 23 23 23 23 23 23 23 23 24 24 24 25 24 25 25 25 26 26 26 26 26 26 26 26 26 26 27 27
Wind_Direction
197 200 202 202 203 203 203 205 205 209 215 208 207 211 200 188 183 185 192 193 195 196 196 199 194 180 178 179 177 178 180 181 180 178 177 177 177 177 177 176 175 175 173 172 173 172 171 169 166 165 163 161 159 158 158 155 151 148 145 142 139 136 133 132 130 130 129 128 129 129 129 131 133 136 138 138 139 138 137 136 136 135 134 134 133 132
199 203 204 202 203 203 202 207 211 213 215 211 207 209 207 196 180 186 195 190 194 197 194 199 196 183 181 181 179 180 181 182 181 180 180 179 179 180 179 177 176 176 175 173 173 173 173 171 169 167 165 164 163 162 161 159 156 153 149 147 144 140 138 136 134 133 132 130 129 129 130 132 134 137 139 140 141 140 141 140 139 138 137 137 136 134
201 205 203 201 202 203 204 207 209 212 213 210 207 208 208 200 188 184 186 184 191 198 195 198 197 188 185 183 181 183 183 183 183 182 182 181 182 182 181 179 178 178 177 176 175 175 175 173 172 170 169 168 166 165 164 163 161 158 154 152 149 145 142 139 137 134 132 131 130 129 131 132 133 137 139 141 142 142 142 143 143 142 141 140 139 137
201 205 202 200 203 203 204 205 206 209 210 208 208 210 204 199 201 194 182 181 189 199 199 197 196 192 189 186 185 186 185 184 185 185 184 185 185 185 184 181 180 181 180 179 178 177 176 175 175 173 172 171 169 168 167 166 165 163 161 158 154 151 147 143 140 136 132 131 131 130 131 131 133 136 139 141 144 144 144 145 145 145 145 144 143 142
199 202 201 199 202 203 203 203 205 207 207 208 211 212 203 198 201 191 180 182 189 197 196 194 196 194 190 188 186 187 188 188 188 188 186 187 189 188 187 185 184 184 182 182 181 180 178 178 177 175 174 174 172 171 170 169 169 167 167 164 159 157 152 147 145 141 136 133 133 133 134 134 135 138 141 143 145 147 147 148 149 148 148 148 146 146
201 201 201 199 200 203 205 204 205 208 207 207 211 214 209 198 191 181 178 182 191 197 194 194 199 196 192 191 188 188 192 192 191 191 190 189 190 190 190 189 187 186 185 185 184 182 181 180 178 177 177 176 175 174 173 172 172 170 170 168 164 162 157 153 150 147 141 138 138 138 139 140 141 142 145 146 147 149 149 151 152 152 152 152 151 151
202 201 201 201 200 202 206 205 204 207 209 205 204 209 209 198 189 183 183 188 197 202 199 202 205 198 193 195 194 191 194 195 193 194 193 190 190 191 191 190 189 188 187 187 187 185 184 182 181 180 180 180 179 177 175 174 174 174 173 171 169 166 162 159 156 153 149 144 144 143 143 144 144 145 147 149 150 151 152 153 155 156 157 158 158 157
200 198 199 201 202 203 205 206 203 205 210 206 199 204 204 197 193 189 188 194 200 199 198 200 199 196 198 200 198 195 197 197 195 195 195 192 192 192 191 191 190 190 189 188 188 188 187 185 183 183 183 183 181 179 178 176 176 177 176 174 172 169 166 164 162 160 156 152 150 148 146 146 145 145 147 150 151 153 154 155 157 159 160 162 164 163
201 200 199 201 203 204 205 205 202 204 210 207 202 205 201 197 196 192 193 197 197 196 197 195 190 192 201 202 200 200 200 199 197 197 196 194 193 193 192 192 192 192 191 190 189 189 189 188 187 186 185 184 183 181 180 179 179 179 178 177 175 173 170 168 167 166 164 160 157 154 150 149 148 147 148 150 152 154 156 157 159 161 162 165 166 166
203 203 202 202 204 205 206 207 204 205 209 204 201 204 200 197 196 195 201 203 202 210 206 193 191 196 203 200 200 204 203 200 198 198 197 196 195 194 193 193 193 193 193 192 191 191 190 189 189 188 187 186 185 183 183 182 181 181 180 179 178 177 175 173 172 171 170 167 163 160 156 154 153 151 151 152 154 155 157 159 160 162 164 166 167 168
200 203 204 205 205 206 207 207 206 207 208 202 200 202 199 197 199 201 207 207 210 220 209 193 196 205 208 199 202 209 206 201 199 198 198 197 196 195 195 195 195 195 195 194 193 192 191 191 191 190 190 188 187 186 186 185 184 184 183 182 181 181 180 178 177 176 175 174 171 166 163 161 160 158 157 157 157 158 159 161 162 164 165 166 168 169
201 202 205 206 207 209 208 206 206 208 207 203 202 203 200 200 203 205 207 209 216 219 205 197 200 209 219 210 209 215 207 201 200 199 198 197 197 197 196 196 197 196 195 195 194 193 192 192 192 192 192 191 190 189 189 189 188 187 186 185 184 184 184 182 181 181 180 179 178 173 169 167 166 165 164 163 163 163 164 165 165 166 168 169 171 171
207 206 205 206 208 209 209 207 206 207 205 205 205 204 205 205 206 208 207 210 217 213 199 198 200 211 227 221 214 213 203 199 201 202 200 198 197 198 198 197 197 196 196 195 194 194 193 193 194 194 193 193 194 193 193 192 191 191 190 188 187 187 187 187 186 185 184 184 183 180 176 174 173 172 171 169 169 169 169 170 171 172 173 173 174 176
207 209 208 207 207 207 208 208 206 205 205 206 205 206 208 208 208 211 211 211 216 211 198 195 201 214 224 216 209 202 195 196 200 204 205 202 199 199 198 198 197 196 196 195 195 195 195 195 195 195 195 196 197 197 196 195 194 193 193 191 190 189 190 189 189 188 188 187 186 184 182 181 179 178 177 175 174 175 176 176 177 178 179 179 180 181
205 208 208 207 206 203 205 210 209 206 206 207 206 208 212 213 213 213 214 215 213 207 199 197 206 218 215 208 204 192 189 195 201 202 205 206 203 200 198 197 196 195 195 196 195 196 196 196 197 197 198 199 199 199 198 197 196 196 196 195 193 192 192 191 191 191 191 190 189 188 186 186 185 184 183 182 180 181 182 182 182 182 182 183 184 185
210 212 206 204 205 202 204 209 210 207 207 208 208 210 213 215 216 216 220 221 213 207 209 209 215 219 212 208 204 194 191 199 203 201 203 207 206 203 200 198 197 195 196 197 196 197 197 197 198 199 200 201 202 201 199 198 199 199 198 197 196 195 194 193 194 194 194 194 193 192 191 190 190 190 188 187 185 185 186 187 187 187 186 185 186 188
212 214 203 200 204 205 205 206 207 208 208 208 209 212 214 217 220 220 222 223 221 219 215 213 217 215 212 214 209 203 202 204 205 203 204 207 207 204 201 199 198 196 196 198 198 198 198 199 199 200 201 202 202 202 201 201 201 200 199 199 198 198 197 196 196 196 197 197 196 196 196 195 195 195 194 192 190 189 190 191 191 191 190 189 189 190
211 211 202 202 206 206 206 206 207 210 211 210 211 211 212 217 222 222 222 221 222 224 217 214 220 217 215 219 214 210 210 208 208 207 204 205 204 204 203 200 199 199 198 198 198 199 199 199 199 200 201 203 203 204 204 204 203 201 200 200 200 200 200 199 198 199 200 200 199 199 199 200 200 199 199 198 196 194 194 194 195 195 194 194 193 193
211 213 203 203 206 203 203 206 207 210 213 214 214 212 211 215 216 216 219 222 221 223 219 215 220 223 221 219 213 212 212 209 209 209 206 204 202 202 203 203 201 200 199 198 198 199 199 199 200 201 202 203 204 204 205 205 204 203 202 201 201 202 202 201 201 201 203 203 203 203 202 203 203 203 203 202 201 200 199 199 199 199 199 199 199 198
210 213 204 201 203 200 201 207 208 207 209 213 215 212 212 215 217 216 219 222 222 225 222 215 219 225 224 220 214 212 213 210 208 209 208 204 201 201 202 202 201 200 200 199 198 199 200 200 200 201 203 204 205 205 204 205 205 204 203 203 202 203 204 204 204 204 205 205 206 206 205 205 205 206 206 206 205 205 204 204 203 203 204 205 204 203
206 210 206 199 200 203 205 207 208 207 207 210 213 212 211 213 217 220 221 221 221 224 225 223 222 220 220 225 220 214 213 212 208 208 208 204 200 199 200 200 200 200 200 200 200 200 201 202 202 202 203 205 205 205 204 205 206 205 205 205 204 205 206 206 206 206 207 207 208 209 208 208 208 209 210 210 210 210 209 209 208 208 209 209 210 209
206 209 210 202 200 208 210 207 209 212 210 210 212 214 213 213 214 218 220 219 220 224 227 228 225 215 216 228 223 216 215 212 208 207 207 204 200 199 199 198 198 199 201 201 202 202 202 203 203 202 202 204 206 206 205 205 206 207 207 207 207 207 208 209 209 209 209 210 210 211 211 211 211 211 212 213 214 214 213 213 213 213 213 213 214 214
209 210 213 210 204 208 208 205 210 216 214 213 215 216 216 215 215 217 219 218 219 223 225 226 226 218 215 220 218 217 215 211 208 207 206 203 201 200 200 199 198 198 200 202 203 204 203 203 203 203 202 204 206 207 207 207 208 209 210 209 209 209 210 211 211 211 211 212 212 213 213 213 214 214 214 215 216 217 217 217 217 217 217 218 218 218
209 210 212 214 211 209 206 206 212 216 216 216 217 217 218 217 217 220 223 223 221 220 221 223 222 215 212 214 214 216 216 212 210 207 204 203 201 202 203 203 202 200 200 201 203 203 203 202 203 204 204 206 207 208 209 209 210 211 211 211 211 211 211 212 213 213 213 213 214 215 215 216 216 217 217 218 219 220 220 220 220 221 221 222 223 222
208 211 211 211 210 209 207 208 210 212 214 217 217 217 218 219 219 221 222 222 223 221 221 225 224 215 212 215 213 214 216 214 210 207 205 204 202 202 204 205 206 205 204 204 204 205 205 204 205 206 208 209 209 210 211 211 212 212 213 213 213 213 213 214 215 215 215 215 215 216 217 218 219 219 220 221 221 222 223 223 223 224 224 224 226 226
209 212 213 213 212 210 208 208 209 209 211 215 217 217 217 218 219 219 218 220 223 223 222 226 227 221 217 220 218 216 216 214 210 208 206 204 202 201 203 206 208 209 210 209 209 211 212 211 211 211 212 212 212 212 213 213 214 214 215 215 215 215 215 216 216 216 216 216 216 217 218 219 221 222 223 223 224 224 225 225 226 227 227 227 228 228
209 208 210 213 216 216 211 209 210 209 207 211 215 216 217 218 220 220 221 222 223 224 226 227 226 224 221 220 218 216 215 213 211 210 207 205 204 202 204 207 209 211 214 215 216 217 218 217 217 216 216 216 216 215 215 215 216 216 217 217 217 217 216 217 218 218 218 218 218 219 220 221 222 224 225 226 227 227 227 228 229 229 230 230 231 231
209 207 208 211 212 212 211 208 208 208 207 210 214 215 216 217 219 221 224 225 223 226 230 225 221 226 225 217 214 214 213 212 211 211 209 207 206 204 204 206 209 212 215 218 220 221 220 219 220 220 220 219 219 217 217 217 217 217 217 217 218 218 218 219 219 219 219 220 220 221 222 224 225 225 226 228 228 229 229 230 231 232 232 233 233 234
211 208 207 208 205 205 207 204 203 205 205 208 212 214 215 215 216 220 223 224 223 226 229 222 219 226 226 217 214 215 214 214 213 212 211 209 208 207 207 209 211 212 214 216 218 218 217 218 220 221 220 220 220 219 220 219 218 218 217 217 218 218 218 220 220 221 221 221 222 224 224 226 228 228 228 229 229 230 231 232 233 234 235 236 236 236
211 207 207 207 200 198 202 201 201 201 199 200 204 209 213 214 215 219 222 222 223 226 230 228 224 226 224 218 216 215 215 215 214 213 213 211 210 211 212 214 215 214 214 215 214 212 213 218 224 224 221 219 219 219 221 221 219 218 217 218 219 218 219 220 221 221 222 222 224 227 227 229 231 231 231 231 231 232 232 233 235 236 237 239 239 239
211 209 209 209 203 197 199 200 200 200 198 196 199 207 212 213 213 216 218 220 223 226 228 229 227 226 224 219 215 214 216 216 214 213 214 213 213 213 214 214 214 214 214 214 214 212 211 217 224 223 220 220 220 219 219 220 218 217 217 218 218 218 219 221 222 222 224 224 226 229 230 232 233 234 235 234 234 234 234 235 236 237 238 239 240 241
214 211 209 210 207 199 200 203 201 201 201 200 204 215 218 215 215 217 218 220 224 226 225 226 228 228 223 219 216 216 218 217 214 213 212 212 213 214 214 212 211 212 213 213 214 214 214 216 219 217 216 219 222 221 219 218 217 217 217 217 217 218 220 223 224 225 226 227 228 229 231 233 235 237 237 237 236 236 236 237 237 238 239 240 241 242
216 214 211 211 210 205 207 210 207 206 208 208 214 221 221 220 220 220 220 221 224 227 227 226 230 230 223 219 220 219 219 218 216 213 212 211 212 213 214 213 212 212 213 213 212 213 213 215 217 216 215 218 220 220 218 217 215 215 216 216 217 218 220 221 223 225 227 228 230 231 233 235 236 237 238 238 238 237 238 238 238 239 240 242 243 244
219 217 214 213 212 212 217 218 214 212 212 211 216 220 221 221 222 223 224 224 223 226 228 228 230 228 222 221 221 220 220 219 217 215 214 213 213 213 213 214 215 214 213 212 212 212 212 212 214 215 215 217 218 216 214 214 214 215 215 216 216 217 219 220 222 225 227 229 231 232 233 233 233 235 236 237 237 237 238 239 240 240 242 243 244 245
223 219 217 214 213 215 220 221 218 214 211 209 213 219 221 222 224 226 225 224 225 227 230 232 230 228 226 225 221 219 220 220 218 217 216 215 215 215 214 215 216 216 216 216 215 215 214 214 214 214 213 215 217 215 212 212 214 216 217 217 217 218 219 219 221 223 225 227 229 230 230 230 231 232 233 234 235 237 238 239 239 240 242 244 245 245
225 220 218 217 214 214 216 218 216 214 211 211 215 221 224 223 227 227 221 221 228 231 233 234 231 229 229 225 219 218 219 219 219 218 217 216 217 217 216 217 218 218 219 219 216 213 210 209 210 210 209 210 212 212 210 211 212 214 215 216 216 216 217 217 217 220 222 223 223 224 225 226 228 229 230 231 233 235 236 237 238 240 242 244 246 246
224 221 220 219 217 216 218 217 214 213 214 215 219 225 228 227 231 229 222 222 232 234 234 234 231 230 228 221 217 218 218 218 220 220 218 218 219 219 217 217 217 217 216 215 212 206 203 203 203 202 201 201 200 199 201 205 207 208 208 210 211 212 214 215 216 218 219 218 218 219 221 223 224 225 225 226 228 229 231 233 235 237 239 242 245 247
221 222 222 220 218 219 220 218 217 218 219 220 223 229 233 232 233 230 223 225 237 239 235 232 230 229 224 218 216 216 217 219 221 221 221 221 220 218 216 214 213 211 210 209 206 204 203 204 202 201 202 203 202 199 196 197 199 200 201 203 204 206 208 210 212 214 214 214 215 216 217 219 221 222 222 222 224 225 226 228 231 233 235 237 242 247
220 219 221 221 219 219 220 220 221 222 222 222 228 235 238 234 231 227 222 223 238 245 238 232 229 227 222 217 216 217 219 223 223 221 221 220 216 215 214 213 211 209 208 208 207 205 205 204 202 203 206 208 209 208 206 203 201 200 199 199 201 202 204 204 207 210 211 211 211 212 214 216 217 218 219 219 220 222 224 227 229 232 235 239 243 247
220 218 218 221 220 219 220 222 223 221 220 225 234 240 239 232 228 227 223 224 239 249 242 234 230 225 219 216 217 219 223 227 224 218 217 217 214 214 214 213 212 210 211 211 210 207 205 206 207 208 210 211 212 212 212 210 209 209 209 209 207 206 205 202 202 206 209 211 213 214 216 217 216 215 215 217 219 222 225 228 230 233 237 242 244 245
219 221 221 221 220 218 219 220 219 216 222 234 240 239 236 230 228 228 227 230 244 252 246 238 232 225 220 217 218 222 225 227 221 214 212 214 214 214 214 215 214 214 215 214 212 210 210 211 213 214 214 215 215 216 217 217 217 216 216 216 214 212 210 208 208 209 211 213 215 217 218 218 217 216 216 219 222 226 230 233 234 236 239 242 243 243
222 223 221 222 223 221 220 219 216 213 223 241 244 236 232 228 225 227 232 236 244 249 246 242 234 227 223 220 220 221 220 217 215 212 212 214 215 214 215 215 215 216 217 217 215 215 215 215 216 216 217 217 217 218 220 220 221 220 219 218 216 214 214 215 216 218 218 218 217 218 219 220 221 221 224 226 228 232 235 237 238 239 240 241 241 241
229 226 220 221 226 226 221 218 218 217 227 246 245 233 228 228 227 232 239 241 242 244 244 242 236 229 226 222 220 220 218 215 215 215 215 216 215 215 215 215 214 214 215 215 216 216 217 216 216 216 218 219 220 221 222 222 224 224 224 222 221 219 219 219 219 220 221 222 222 223 224 225 225 227 230 232 233 236 238 239 240 240 240 240 241 240
228 230 223 219 225 229 223 218 219 223 231 241 238 229 229 234 235 238 241 240 240 242 242 240 237 233 230 225 221 221 220 219 218 217 217 218 216 215 215 214 212 212 212 213 213 214 216 216 217 218 219 221 223 224 224 225 226 226 227 228 228 227 225 224 224 224 225 226 227 228 229 230 231 232 234 235 236 237 238 239 240 241 241 242 242 242
227 231 229 223 222 224 223 217 219 224 229 233 232 230 233 237 239 241 241 239 239 241 241 241 239 237 233 227 222 220 220 219 219 220 222 221 218 216 215 213 212 212 212 213 213 214 216 217 217 219 220 221 224 227 227 227 227 227 230 232 233 233 232 231 230 231 232 232 232 233 234 234 235 236 237 238 238 239 239 240 241 242 243 244 245 246
226 229 231 227 216 212 215 216 219 225 229 230 230 231 235 238 241 242 241 239 239 240 240 240 239 237 234 228 222 221 222 221 221 224 225 223 221 219 216 214 214 215 215 215 216 217 218 218 218 219 220 222 225 228 230 231 231 231 233 235 236 237 238 238 237 237 239 240 239 239 239 239 239 240 240 240 241 241 242 243 244 245 246 246 247 248
222 230 230 224 219 219 221 220 222 229 232 232 233 234 236 240 243 243 242 241 241 241 240 239 237 235 233 228 223 223 225 225 224 225 225 224 224 223 221 218 217 216 214 215 217 218 220 221 221 222 223 225 227 229 231 233 235 236 236 238 238 239 240 241 240 240 240 241 242 243 243 242 243 243 242 243 244 244 245 246 247 248 249 249 250 251
228 235 231 224 225 228 224 219 222 227 229 233 238 240 242 245 247 247 245 243 242 241 240 239 236 234 232 229 224 223 225 226 227 227 227 226 226 224 222 220 219 218 216 216 218 219 221 223 224 225 226 228 230 231 232 234 236 238 239 241 241 241 241 242 242 241 240 241 242 243 244 244 244 244 244 244 245 246 247 248 249 250 251 253 254 254
236 236 233 230 229 226 221 221 227 229 228 232 239 243 247 249 249 250 250 248 245 242 239 237 236 234 232 228 225 223 224 227 228 227 227 229 228 225 222 220 219 220 219 219 220 222 224 225 226 227 228 229 230 232 233 235 236 238 239 241 242 242 242 242 242 243 243 243 243 244 244 245 245 245 245 245 246 247 249 249 249 250 252 254 256 256
239 237 236 238 237 231 226 230 236 237 236 238 244 247 250 251 250 250 252 252 250 248 243 238 236 235 233 231 229 228 228 230 229 226 225 227 227 224 221 220 221 221 221 222 224 225 226 228 229 230 231 232 233 234 235 236 238 239 240 241 242 243 243 243 243 243 243 244 245 245 245 245 245 246 246 246 247 248 249 250 251 252 253 255 257 258
247 247 246 245 241 237 236 240 245 245 243 244 247 250 251 253 252 251 251 251 251 250 248 244 240 238 237 236 235 233 232 232 230 228 226 225 224 220 218 219 222 224 224 225 226 227 228 230 232 233 233 233 235 236 237 238 239 240 241 242 243 244 245 245 245 244 244 244 245 245 246 247 247 247 247 248 248 249 249 251 253 255 256 257 257 258